Location: Kellogg
(38.0159°N, 90.0546°W)
Time: 12:07:36
(UTC+00:00)

Transit 2A - Pass Details

Date: 13 September 2024
Orbit: 590 x 960 km, 66.7° (Epoch: 11 October)

Event Time Altitude Azimuth Distance (km) Brightness Sun altitude
Rises 00:36:06 0° 199° (SSW) 3,325 9.4 -5.6°
Reaches altitude 10° 00:38:27 10° 197° (SSW) 2,450 8.7 -6.0°
Maximum altitude 00:44:08 70° 115° (ESE) 951 6.3 -7.1°
Drops below altitude 10° 00:50:20 10° 33° (NNE) 2,659 8.6 -8.3°
Sets 00:52:57 0° 31° (NNE) 3,630 9.3 -8.8°
